Regional Weather Roundup
Issued by NWS

Home | Current Version | Previous Version | Text Only | Print | Product List | Glossary Off
Versions: 1 2 3 4 5 6 7 8 9 10 11 12 13 14 15 16 17 18 19 20 21 22 23 24 25 26 27 28 29 30 31 32 33 34 35 36 37 38 39 40 41 42 43 44 45 46 47 48 49 50

000
ASUS43 KFSD 310502
RWRSD

WEATHER ROUNDUP FOR SOUTH DAKOTA
NATIONAL WEATHER SERVICE SIOUX FALLS SD
1200 AM CDT FRI OCT 31 2014

NOTE: "FAIR" INDICATES FEW OR NO CLOUDS BELOW 12,000 FEET WITH NO
SIGNIFICANT WEATHER AND/OR OBSTRUCTIONS TO VISIBILITY.


SDZ001>005-009-010-012>017-310600-
NORTHWEST AND NORTH CENTRAL SOUTH DAKOTA

CITY           SKY/WX    TMP DP  RH WIND       PRES   REMARKS
BUFFALO          N/A     34  28  79 SE14      30.40R WCI  25
FAITH            N/A     32  28  85 E9        30.52R WCI  24
MOBRIDGE       CLEAR     27  22  81 NE9       30.55S WCI  18
$$

SDZ012>016-024>037-041>051-057-063-072>074-310600-
SOUTHWEST AND SOUTH CENTRAL SOUTH DAKOTA

CITY           SKY/WX    TMP DP  RH WIND       PRES   REMARKS
RAPID CTY ARPT CLOUDY    33  30  88 SE6       30.48S WCI  28
PIERRE         CLOUDY    31  22  69 NE10      30.56R WCI  22
CUSTER         FOG       29  27  92 NE7       30.40S VSB 1/4 WCI  22
ELLSWORTH AFB  CLOUDY    34  30  86 SE12      30.47S WCI  25
PHILIP         CLOUDY    34  30  85 E5        30.53R WCI  30
PINE RIDGE     CLEAR     25  23  92 NE7       30.46S WCI  17
SPEARFISH      FAIR      27  27 100 CALM      30.42S
WINNER         CLOUDY    36  28  73 NE13      30.53R
$$

SDZ004>011-016>023-039-040-310600-
NORTHEAST SOUTH DAKOTA

CITY           SKY/WX    TMP DP  RH WIND       PRES   REMARKS
ABERDEEN       CLEAR     24  19  81 N8        30.56R WCI  15
WATERTOWN      CLEAR     24  19  81 N10       30.49R WCI  14
SISSETON         N/A     24  21  88 N10       30.54R WCI  14
$$

SDZ017-020-022-023-036>040-048>070-310600-
SOUTHEAST SOUTH DAKOTA

CITY           SKY/WX    TMP DP  RH WIND       PRES   REMARKS
SIOUX FALLS    CLEAR     30  20  66 N14       30.48R WCI  19
HURON          CLEAR     20  16  84 NW6       30.56R WCI  12
CHAMBERLAIN    CLOUDY    32  22  68 NE12      30.56R WCI  23
MITCHELL       PTCLDY    30  22  72 N12       30.55R WCI  20
YANKTON        CLOUDY    36  25  64 N17G25    30.50R
$$

ABBREVIATIONS USED IN REMARKS
   TC - TEMPERATURE IN CELSIUS
  WCI - WIND CHILL INDEX
   HX - HEAT INDEX
  VSB - VISIBILITY




USA.gov is the U.S. government's official web portal to all federal, state and local government web resources and services.